Temperature
12 12 13 13 13 13 13 13 13 13 14 14 14 14 14 14 14 14 14 14 14 14 14 14 15 15 15 15 15 15 15 15 15 15 15 15 15 15 15 15 15 15 15
12 12 12 13 13 13 13 13 13 13 13 14 14 14 14 14 14 14 14 14 14 14 14 14 14 14 14 15 15 15 15 15 15 15 15 15 15 15 15 15 15 15 15
12 12 12 12 13 13 13 13 13 13 13 13 13 14 14 14 14 14 14 14 14 14 14 14 14 14 14 14 14 14 14 15 15 15 14 14 14 15 15 15 15 15 15
12 12 12 12 12 12 12 13 13 13 13 13 13 13 13 13 13 13 14 14 14 14 14 14 14 14 14 14 14 14 14 14 14 14 14 14 14 14 15 15 15 15 15
11 11 12 12 12 12 12 12 12 13 13 13 13 13 13 13 13 13 13 13 13 14 14 14 14 14 14 14 14 14 14 14 14 14 14 14 14 14 14 14 15 15 15
11 11 11 12 12 12 12 12 12 12 12 13 13 13 13 13 13 13 13 13 13 13 13 13 13 13 13 13 14 14 14 14 13 13 13 13 14 14 14 14 14 14 14
11 11 11 11 11 12 12 12 12 12 12 12 12 12 12 12 12 13 13 13 13 13 13 13 13 13 13 13 13 13 13 13 13 13 13 13 13 14 14 14 14 14 14
10 11 11 11 11 11 12 12 12 12 12 12 12 12 12 12 12 12 12 12 12 12 13 13 13 13 13 13 13 13 13 13 13 13 13 13 13 13 13 14 14 14 14
10 10 10 10 11 11 11 11 11 11 11 11 11 11 11 11 11 12 12 12 12 12 12 12 12 12 12 13 13 13 13 13 12 12 12 13 13 13 13 13 13 13 13
10 10 10 10 10 10 11 11 11 11 11 11 11 11 11 11 11 11 11 11 11 11 12 12 12 12 12 12 12 12 12 12 12 12 12 12 13 13 13 13 13 13 13
9 10 10 10 10 10 10 10 10 10 10 10 10 10 10 10 10 10 11 11 11 11 11 11 11 12 12 12 12 12 12 12 12 12 12 12 12 13 13 13 13 13 13
9 9 9 9 9 10 10 10 10 10 10 10 10 10 10 10 10 10 10 10 10 11 11 11 11 11 11 11 11 11 11 11 11 11 12 12 12 12 12 12 12 12 12
8 9 9 9 9 9 9 9 9 9 9 9 9 9 9 9 9 9 10 10 10 10 10 10 10 10 11 11 11 11 11 11 11 11 11 11 12 12 12 12 12 12 12
8 8 8 8 8 8 8 8 9 9 9 9 9 9 9 9 9 9 9 9 9 9 10 10 10 10 10 10 10 10 10 10 10 10 11 11 11 11 12 12 12 12 12
8 8 8 8 8 8 8 8 8 8 8 8 8 8 8 8 8 9 9 9 9 9 9 9 9 9 9 9 10 10 10 10 10 10 10 11 11 11 11 11 11 11 11
7 7 7 7 7 7 7 7 7 7 7 7 7 8 8 8 8 8 8 8 8 8 8 8 8 9 9 9 9 9 9 9 9 10 10 10 10 11 11 11 11 11 11
6 6 7 7 7 7 7 7 7 7 7 7 7 7 7 7 7 7 7 7 7 7 7 8 8 8 8 8 8 8 9 9 9 9 9 9 10 10 10 10 11 10 11
6 6 6 6 6 6 6 6 6 6 6 6 6 6 6 6 6 6 7 7 7 7 7 7 7 7 7 7 8 8 8 8 8 8 9 9 9 9 9 10 10 10 10
5 5 6 6 6 6 6 6 5 5 5 5 6 6 6 6 6 6 6 6 6 6 6 6 6 6 6 7 7 7 7 7 8 8 8 8 8 8 9 9 9 9 9
5 5 5 5 5 5 5 5 5 5 5 5 5 5 5 5 5 5 5 5 5 5 5 5 5 6 6 6 6 6 7 7 7 7 7 7 8 8 8 8 8 9 9
4 4 4 5 5 5 5 5 5 4 4 4 4 4 4 4 4 4 4 4 4 4 5 5 5 5 5 5 5 5 6 6 6 6 6 7 7 7 7 7 7 8 8
4 4 4 4 4 4 4 4 4 4 4 4 4 4 4 4 4 4 4 4 4 4 4 4 4 4 4 4 4 4 4 5 5 5 6 6 6 6 6 7 7 7 7
3 3 3 3 3 3 3 3 3 3 3 3 3 3 3 3 3 3 3 3 3 3 3 3 3 3 3 3 3 3 3 4 4 4 5 5 5 5 5 6 6 6 6
2 2 3 3 3 3 3 3 2 2 2 2 2 2 2 2 2 2 2 2 2 2 2 2 3 2 2 2 2 2 2 2 2 3 4 4 4 4 4 5 5 6 6
2 2 2 2 2 2 2 2 2 1 2 2 1 1 1 2 2 1 2 2 2 2 2 2 2 2 2 2 2 2 2 2 2 2 2 3 3 4 4 4 4 5 5
1 1 1 1 1 1 1 1 1 1 1 1 1 1 1 1 1 1 1 1 1 1 1 1 1 1 1 1 1 1 1 1 1 1 1 2 2 3 3 3 3 4 4
Wind_Speed
3 7 8 8 8 9 9 9 9 10 10 10 10 10 10 10 11 11 11 11 11 10 10 10 10 10 10 10 10 10 10 10 10 10 10 10 10 10 10 8 8 11 12
4 5 6 7 9 9 10 10 9 10 10 10 10 10 10 10 10 11 11 11 10 10 10 10 10 10 10 10 10 9 10 10 10 9 7 8 9 9 9 8 8 10 11
5 5 6 8 9 10 10 10 10 10 10 10 10 10 10 11 11 11 10 11 11 10 10 10 10 10 10 9 9 10 9 9 9 6 3 6 8 8 8 8 9 10 10
5 6 7 9 9 10 11 11 10 10 10 10 10 10 10 10 11 11 10 10 10 10 10 10 10 9 9 9 9 8 8 8 7 3 3 5 6 8 7 7 8 9 9
6 6 8 10 10 11 10 10 10 10 10 10 10 10 10 10 10 10 10 10 10 10 9 9 9 9 8 8 8 8 8 7 4 2 4 4 5 7 6 7 7 8 8
6 7 8 10 10 11 11 11 10 10 10 10 10 10 9 9 10 10 10 9 9 9 9 9 9 9 8 8 7 7 7 5 1 3 3 4 5 5 5 6 6 6 7
6 7 8 10 10 11 11 11 11 10 10 10 10 10 10 10 10 10 10 9 9 9 9 8 8 8 8 7 7 7 6 4 3 3 3 3 5 5 4 4 5 6 6
7 7 8 9 10 11 11 11 12 11 10 10 10 10 10 10 10 10 10 10 10 9 9 9 8 8 8 7 6 6 6 4 2 2 2 3 5 4 3 4 4 4 5
8 8 8 8 8 10 11 11 12 11 11 10 10 10 10 10 10 10 10 10 10 10 9 9 9 9 8 7 7 6 5 4 2 2 2 3 4 3 3 3 3 3 4
8 9 9 9 8 8 8 10 11 11 11 10 10 10 9 9 9 10 9 10 9 10 9 9 8 8 8 7 7 6 4 2 2 2 2 3 4 2 2 3 2 3 3
7 8 9 9 9 8 7 8 8 9 10 9 8 9 8 7 7 7 9 10 9 9 9 8 7 7 6 5 6 5 3 2 2 2 2 4 3 2 2 2 2 2 3
6 7 8 8 8 8 7 7 6 7 7 8 8 7 6 6 6 6 7 8 8 8 7 7 7 5 4 4 4 3 2 3 3 2 3 4 3 2 1 1 1 1 2
5 6 7 7 7 7 6 6 6 6 7 7 8 8 6 5 5 5 5 5 6 6 6 6 5 5 5 4 4 3 4 3 3 3 3 3 3 2 1 1 1 1 1
5 5 6 7 7 7 6 6 6 6 6 7 7 8 6 5 5 5 5 5 5 5 5 5 5 5 5 4 4 4 4 3 3 3 3 3 3 3 2 2 1 2 2
4 5 5 6 6 6 6 6 6 6 6 6 6 8 7 5 5 5 4 5 5 5 5 5 5 5 5 4 4 4 4 4 4 4 3 2 3 3 2 2 2 2 3
4 4 4 5 6 6 6 5 5 6 6 6 6 7 8 6 5 5 4 4 5 5 5 5 5 4 4 4 4 4 5 5 4 4 4 3 3 3 2 2 3 3 3
2 3 4 4 5 6 5 5 5 6 6 6 6 7 7 7 6 6 5 4 5 5 5 5 5 4 4 4 4 4 4 5 4 5 5 4 4 3 2 3 3 3 3
2 3 3 3 4 5 5 5 5 5 6 6 6 7 7 7 6 5 5 5 6 5 4 4 4 4 4 4 4 4 4 4 5 4 4 4 3 3 3 2 3 3 3
2 2 3 3 4 4 4 4 4 5 5 6 6 7 8 8 7 6 5 5 5 4 4 4 3 4 4 4 4 4 4 4 4 4 4 3 3 3 2 2 3 3 3
1 2 2 3 3 3 2 2 3 4 5 6 6 7 8 8 8 7 5 5 5 4 4 4 4 4 4 4 4 4 4 4 4 3 3 3 3 3 2 2 3 3 4
1 2 2 2 3 2 2 2 2 3 3 4 6 8 8 8 8 7 6 5 5 4 4 5 4 4 3 4 4 4 4 4 4 3 3 3 3 3 2 2 3 3 3
1 1 1 2 2 2 2 2 1 2 2 3 5 6 8 8 8 7 7 5 5 4 4 4 4 3 3 3 3 4 3 3 3 3 3 3 4 3 3 3 3 3 3
2 1 0 1 1 2 2 1 1 1 1 2 4 5 7 8 8 7 7 6 6 5 4 4 4 4 3 3 3 3 3 3 4 3 4 4 4 4 4 4 4 4 4
2 1 0 1 1 2 2 1 2 2 2 3 4 4 6 7 7 7 7 7 6 5 5 5 5 4 4 4 3 4 5 4 4 4 4 4 5 5 5 4 4 5 5
2 1 1 1 1 1 1 1 1 2 2 3 3 4 5 5 6 7 7 7 6 5 6 6 6 5 5 5 4 4 5 5 6 6 6 6 5 5 5 5 4 5 5
2 1 1 1 0 1 1 1 2 2 3 4 4 4 4 4 5 7 7 7 7 6 6 6 6 7 6 7 6 6 5 5 5 6 7 7 7 6 6 5 5 5 5
Wind_Direction
359 352 360 14 39 46 49 53 51 49 54 57 58 57 55 58 57 55 54 55 55 57 58 61 63 62 61 64 64 65 65 66 68 68 69 73 79 87 89 88 98 100 99
339 356 16 26 47 50 50 52 52 52 53 54 54 55 55 56 55 54 53 53 52 54 56 58 59 60 59 62 64 64 65 64 65 66 74 86 80 83 86 80 72 98 104
11 23 34 40 50 52 52 51 50 52 53 54 54 54 54 54 53 52 51 51 51 51 51 53 56 58 59 60 62 62 63 63 63 65 83 91 89 85 88 86 91 102 106
25 33 36 47 53 51 50 49 48 48 53 53 51 52 53 52 50 49 49 50 49 49 49 50 52 53 55 58 62 63 62 62 59 51 80 80 87 85 91 92 99 104 105
38 41 45 48 54 51 48 46 44 46 50 49 46 49 51 51 50 48 47 48 47 46 47 49 50 49 51 56 61 62 61 58 54 49 66 73 84 85 90 96 99 108 109
45 43 49 48 51 51 48 45 45 47 49 46 44 46 47 47 47 46 44 46 47 46 46 47 48 47 48 52 57 58 56 46 28 60 64 66 81 83 88 98 102 111 116
48 45 50 48 50 51 48 45 45 47 49 46 43 44 44 45 46 44 42 43 45 44 44 46 45 44 43 47 53 53 47 25 23 46 52 63 67 68 81 98 109 115 120
48 45 48 49 48 48 45 44 44 46 46 44 42 41 41 41 41 40 40 39 40 42 42 42 42 39 37 42 49 50 42 16 20 41 41 60 59 56 81 92 98 112 124
47 44 41 42 45 47 46 45 44 43 42 40 40 41 39 38 35 36 36 35 35 35 37 37 35 35 34 38 44 46 42 8 3 33 26 49 50 51 74 93 105 115 123
47 40 36 34 36 39 45 45 44 43 41 38 38 38 36 35 34 34 32 32 31 31 31 35 32 31 31 37 41 39 32 342 7 14 18 42 43 44 65 80 102 135 130
45 38 33 31 31 31 37 40 41 44 40 36 33 31 29 26 24 26 28 28 28 27 24 26 25 24 22 34 38 28 6 353 350 358 11 29 26 28 41 75 88 125 144
42 34 29 28 26 27 30 33 31 34 33 31 27 24 22 22 18 15 26 24 24 22 18 17 13 8 4 10 17 1 353 345 345 351 10 19 0 356 11 77 106 109 152
49 38 31 28 26 26 27 29 28 27 27 24 23 18 16 20 18 13 9 10 8 7 2 2 357 358 357 354 347 343 342 338 335 334 358 11 338 323 314 251 211 198 173
55 42 34 29 29 27 28 29 29 29 26 23 19 15 13 17 11 11 8 360 359 356 353 349 346 345 347 347 341 336 333 328 323 317 343 6 335 306 282 264 232 218 207
55 41 32 31 32 29 32 29 30 27 25 21 18 16 8 7 4 3 3 359 355 351 349 342 340 342 339 337 335 331 322 313 309 305 309 343 326 314 287 267 247 226 209
52 41 35 36 33 33 36 34 29 25 21 19 20 17 8 2 359 355 354 355 354 348 342 336 334 333 333 329 322 319 311 305 300 299 300 291 290 294 289 273 263 246 225
57 45 37 38 35 37 35 33 31 26 21 19 16 17 13 4 359 356 349 352 353 344 339 337 335 333 330 327 314 311 309 303 299 296 296 292 275 254 251 264 263 252 236
69 51 38 36 36 38 38 32 30 27 26 22 16 14 13 8 1 356 351 351 349 343 338 337 335 327 321 317 315 308 305 304 297 295 292 287 282 267 243 244 256 258 246
81 65 50 39 34 32 37 38 33 30 30 25 19 14 8 8 1 355 351 346 341 339 333 328 324 318 314 314 311 308 300 291 289 295 292 289 285 282 269 238 234 241 241
90 68 55 49 34 27 35 44 40 33 26 24 18 11 4 5 1 353 346 345 339 336 329 321 313 312 310 308 304 299 292 284 275 279 286 287 275 273 280 269 245 233 217
97 73 53 44 30 23 18 12 12 12 10 15 13 8 5 1 359 355 348 342 336 327 323 317 312 303 311 315 303 301 289 270 262 267 283 291 287 280 278 278 255 244 223
146 102 61 44 28 19 7 354 343 348 1 5 2 4 2 360 358 351 347 341 334 322 318 315 309 300 304 313 300 296 290 270 253 272 279 287 288 286 272 264 257 249 244
177 164 74 37 26 18 9 15 5 354 341 346 348 351 354 354 353 349 342 338 332 325 311 307 291 286 290 288 281 280 278 280 305 264 266 275 282 281 274 264 257 249 242
189 167 103 40 30 26 16 5 356 333 333 334 332 334 340 349 350 347 341 336 329 324 316 309 293 278 274 271 271 265 269 283 274 286 271 274 283 282 278 273 259 251 245
181 170 154 83 38 27 18 1 343 334 329 326 324 328 336 341 345 344 339 334 326 318 311 310 299 277 266 264 261 264 265 266 257 262 276 279 278 277 279 275 266 250 246
175 172 167 141 37 10 359 342 329 325 323 324 323 325 329 328 330 337 333 329 324 317 311 303 297 285 268 261 257 251 253 252 251 256 268 279 277 278 278 270 261 250 243
Height
1556 1555 1554 1554 1554 1553 1553 1552 1552 1551 1551 1550 1549 1549 1548 1548 1548 1547 1547 1546 1546 1546 1545 1545 1544 1544 1543 1543 1542 1542 1541 1541 1541 1540 1540 1540 1540 1540 1540 1540 1540 1540 1539
1555 1555 1555 1554 1554 1554 1553 1553 1552 1552 1551 1550 1550 1549 1549 1549 1548 1548 1547 1547 1547 1546 1546 1545 1545 1544 1544 1543 1543 1543 1542 1542 1542 1542 1541 1541 1541 1541 1541 1541 1541 1541 1541
1555 1555 1555 1555 1554 1554 1553 1553 1553 1552 1552 1551 1551 1550 1549 1549 1548 1548 1548 1547 1547 1546 1546 1546 1545 1545 1544 1544 1544 1544 1543 1543 1543 1543 1543 1543 1543 1542 1542 1542 1542 1542 1542
1556 1556 1555 1555 1554 1554 1554 1553 1553 1552 1552 1551 1551 1550 1550 1549 1549 1548 1548 1547 1547 1547 1546 1546 1545 1545 1545 1544 1544 1544 1544 1543 1543 1543 1544 1544 1544 1543 1543 1543 1543 1544 1544
1556 1556 1555 1555 1555 1554 1554 1553 1553 1552 1552 1551 1551 1550 1550 1549 1548 1548 1548 1547 1547 1546 1546 1546 1545 1545 1545 1544 1544 1544 1544 1544 1544 1544 1544 1544 1544 1544 1544 1544 1544 1544 1544
1556 1556 1555 1555 1555 1554 1554 1553 1553 1552 1552 1551 1551 1550 1549 1549 1548 1548 1547 1547 1546 1546 1546 1545 1545 1545 1544 1544 1544 1544 1544 1544 1544 1544 1544 1544 1545 1544 1544 1544 1545 1545 1545
1556 1556 1555 1555 1555 1554 1554 1553 1553 1552 1551 1551 1550 1550 1549 1548 1548 1547 1547 1546 1546 1545 1545 1545 1544 1544 1544 1544 1544 1544 1544 1544 1544 1544 1544 1544 1544 1544 1545 1545 1545 1545 1545
1555 1555 1555 1555 1554 1554 1554 1553 1552 1552 1551 1550 1550 1549 1548 1548 1547 1547 1546 1546 1545 1545 1544 1544 1544 1543 1543 1543 1543 1543 1543 1543 1544 1544 1544 1544 1544 1544 1545 1545 1545 1545 1546
1555 1555 1555 1554 1554 1554 1553 1552 1552 1551 1551 1550 1549 1548 1548 1547 1546 1546 1545 1545 1545 1544 1544 1543 1543 1543 1542 1542 1542 1542 1542 1543 1543 1543 1543 1543 1543 1543 1544 1544 1544 1545 1545
1554 1554 1554 1554 1553 1553 1552 1552 1551 1550 1550 1549 1548 1548 1547 1546 1546 1545 1545 1544 1544 1543 1543 1542 1542 1542 1541 1541 1541 1541 1542 1542 1543 1542 1542 1542 1542 1543 1543 1543 1543 1544 1545
1554 1554 1553 1553 1553 1552 1551 1551 1550 1549 1549 1548 1548 1547 1546 1546 1545 1544 1544 1543 1543 1542 1542 1541 1541 1541 1540 1540 1540 1540 1541 1541 1541 1541 1541 1541 1541 1541 1542 1542 1542 1543 1543
1553 1553 1553 1552 1552 1551 1551 1550 1549 1548 1548 1547 1547 1546 1545 1545 1544 1543 1542 1542 1541 1541 1540 1540 1540 1539 1539 1539 1539 1539 1539 1539 1540 1539 1539 1539 1539 1540 1540 1540 1540 1541 1542
1552 1552 1552 1551 1551 1550 1550 1549 1548 1548 1547 1546 1545 1545 1544 1543 1543 1542 1541 1540 1540 1539 1539 1538 1538 1537 1537 1537 1537 1537 1537 1537 1537 1537 1537 1537 1537 1538 1538 1538 1538 1539 1540
1551 1551 1551 1550 1550 1550 1549 1548 1548 1547 1546 1545 1544 1543 1543 1542 1541 1540 1540 1539 1538 1537 1537 1536 1536 1535 1535 1535 1535 1535 1535 1535 1535 1535 1535 1535 1535 1535 1536 1536 1536 1537 1538
1550 1550 1550 1550 1549 1549 1548 1547 1547 1546 1545 1544 1543 1542 1542 1541 1540 1539 1538 1537 1536 1536 1535 1534 1534 1533 1533 1533 1533 1533 1533 1533 1532 1532 1532 1532 1532 1532 1533 1533 1534 1535 1536
1549 1549 1549 1549 1548 1548 1547 1546 1546 1545 1544 1543 1542 1541 1540 1539 1539 1538 1537 1536 1535 1534 1533 1532 1532 1531 1530 1530 1530 1530 1530 1530 1530 1529 1529 1529 1529 1529 1530 1530 1531 1532 1533
1548 1548 1548 1548 1547 1547 1546 1545 1545 1544 1543 1542 1541 1540 1539 1538 1537 1536 1535 1533 1532 1532 1531 1530 1530 1529 1528 1528 1528 1528 1527 1527 1527 1526 1526 1526 1526 1526 1526 1527 1528 1529 1530
1547 1547 1547 1546 1546 1545 1545 1544 1543 1543 1541 1540 1539 1538 1537 1536 1535 1534 1533 1532 1531 1530 1529 1528 1527 1527 1526 1525 1525 1525 1524 1524 1523 1523 1523 1523 1523 1523 1523 1524 1525 1526 1526
1545 1545 1545 1545 1544 1544 1543 1543 1542 1541 1540 1539 1538 1536 1535 1534 1533 1532 1531 1529 1528 1528 1527 1526 1525 1524 1523 1523 1522 1521 1521 1521 1520 1520 1520 1520 1520 1520 1520 1520 1521 1522 1523
1543 1544 1543 1543 1543 1542 1542 1541 1541 1540 1538 1537 1536 1534 1533 1532 1531 1530 1528 1527 1526 1525 1524 1523 1522 1521 1521 1520 1519 1518 1517 1517 1517 1517 1517 1516 1516 1516 1517 1517 1518 1518 1519
1541 1541 1541 1541 1541 1540 1540 1539 1538 1538 1537 1535 1534 1532 1531 1530 1528 1527 1526 1524 1523 1522 1521 1520 1519 1519 1518 1517 1516 1515 1514 1513 1513 1513 1514 1513 1513 1513 1513 1513 1514 1515 1515
1539 1539 1539 1539 1539 1538 1538 1537 1536 1535 1534 1533 1532 1530 1529 1527 1526 1524 1523 1522 1520 1519 1518 1517 1516 1515 1514 1514 1514 1513 1512 1512 1510 1510 1510 1510 1510 1510 1510 1510 1510 1511 1511
1536 1536 1536 1537 1536 1536 1535 1534 1533 1532 1531 1531 1530 1528 1526 1525 1523 1522 1520 1519 1517 1516 1515 1514 1513 1512 1511 1511 1512 1513 1511 1509 1507 1506 1506 1506 1506 1506 1506 1506 1506 1507 1507
1534 1534 1534 1534 1534 1533 1532 1532 1531 1529 1528 1527 1526 1525 1524 1522 1521 1519 1517 1516 1514 1513 1512 1510 1509 1508 1508 1508 1508 1508 1509 1507 1507 1503 1503 1503 1503 1503 1502 1502 1502 1503 1503
1531 1532 1532 1531 1531 1531 1530 1529 1528 1527 1526 1525 1523 1522 1520 1519 1518 1516 1514 1513 1511 1510 1508 1507 1506 1505 1504 1504 1504 1504 1504 1504 1503 1502 1499 1498 1499 1499 1499 1498 1498 1498 1499
1528 1529 1529 1529 1528 1528 1527 1526 1525 1524 1523 1522 1520 1519 1517 1516 1514 1513 1511 1510 1508 1506 1505 1503 1502 1501 1500 1500 1500 1499 1499 1499 1499 1498 1497 1495 1494 1494 1494 1494 1494 1494 1494